This demonstration page uses our WeatherBlox Daily Observations layout. Learn more.

36.17497, -115.13722

Hourly Observations for December 31, 2017

Temp ( °F °C ) Dew Point ( °F °C ) Humidity (%) Winds ( mph kmh ) Pressure ( in mb ) Visibility ( mi km ) Precip ( " mm )
12:53 am 00:53 Clear 42 5.6 16 -8.9 35 35 NNW 3 6 30.12 1020 10 16.0934 0 0
1:53 am 01:53 Clear 43 6.1 16 -8.9 34 34 W 5 7 30.11 1020 10 16.0934 0 0
2:53 am 02:53 Clear 42 5.6 15 -9.4 33 33 WNW 6 9 30.11 1020 10 16.0934 0 0
3:53 am 03:53 Clear 43 6.1 17 -8.3 35 35 Calm 30.11 1020 10 16.0934 0 0
4:53 am 04:53 Clear 42 5.6 17 -8.3 36 36 NW 3 6 30.12 1020 10 16.0934 0 0
5:53 am 05:53 Clear 40 4.4 17 -8.3 40 40 NNW 5 7 30.16 1021 10 16.0934 0 0
6:53 am 06:53 Sunny 40 4.4 17 -8.3 40 40 NW 5 7 30.17 1022 10 16.0934 0 0
7:53 am 07:53 Sunny 41 5 18 -7.8 39 39 Calm 30.19 1022 10 16.0934 0 0
8:53 am 08:53 Sunny 48 8.9 15 -9.4 27 27 Calm 30.2 1023 10 16.0934 0 0
9:53 am 09:53 Sunny 52 11.1 15 -9.4 23 23 Calm 30.22 1023 10 16.0934 0 0
10:53 am 10:53 Sunny 55 12.8 13 -10.6 19 19 SSW 3 6 30.2 1023 10 16.0934 0 0
11:53 am 11:53 Sunny 58 14.4 10 -12.2 15 15 SE 5 7 30.17 1022 10 16.0934 0 0
12:53 pm 12:53 Sunny 60 15.6 10 -12.2 14 14 SSE 3 6 30.14 1021 10 16.0934 0 0
1:53 pm 13:53 Sunny 62 16.7 9 -12.8 12 12 SSE 5 7 30.13 1020 10 16.0934 0 0
2:53 pm 14:53 Sunny 63 17.2 7 -13.9 11 11 Calm 30.13 1020 10 16.0934 0 0
3:53 pm 15:53 Sunny 63 17.2 8 -13.3 11 11 Calm 30.14 1021 10 16.0934 0 0
4:53 pm 16:53 Clear 58 14.4 11 -11.7 15 15 Calm 30.15 1021 10 16.0934 0 0
5:53 pm 17:53 Clear 54 12.2 13 -10.6 19 19 WNW 5 7 30.18 1022 10 16.0934 0 0
6:53 pm 18:53 Clear 50 10 15 -9.4 25 25 NNW 6 9 30.2 1023 10 16.0934 0 0
7:53 pm 19:53 Clear 49 9.4 14 -10 25 25 NNW 6 9 30.22 1023 10 16.0934 0 0
8:53 pm 20:53 Clear 47 8.3 14 -10 26 26 NW 7 11 30.22 1023 10 16.0934 0 0
9:53 pm 21:53 Clear 44 6.7 13 -10.6 28 28 NW 5 7 30.23 1024 10 16.0934 0 0
10:53 pm 22:53 Clear 44 6.7 14 -10 30 30 NW 7 11 30.24 1024 10 16.0934 0 0
11:53 pm 23:53 Clear 44 6.7 14 -10 30 30 WNW 6 9 30.23 1024 10 16.0934 0 0

Powered by AerisWeather